Temperature
12 12 13 14 14 14 15 17 20 21 22 24 24 25 24 24 23 20 19 19 19 19 18 18 17 17 17 17 17 17 16 16 16 16 16 16 16 16 16 16 16 16 16 16 16 16 16 16 16
11 12 13 13 13 14 16 18 19 20 22 23 23 24 24 23 21 20 19 19 18 18 18 17 17 17 17 17 17 17 16 16 16 16 16 16 16 16 16 16 16 16 16 16 16 16 16 16 16
11 12 12 13 13 15 17 19 20 21 21 22 22 23 23 22 21 20 19 19 18 17 17 17 17 17 17 17 17 16 16 16 16 16 16 16 16 16 16 16 16 16 16 16 16 16 16 16 16
11 12 12 12 13 15 17 18 19 20 21 21 21 21 21 20 20 19 19 18 17 17 17 17 17 17 17 17 16 16 16 16 16 16 16 16 16 16 16 16 16 16 16 16 16 16 16 16 16
11 11 11 12 13 15 17 18 19 19 19 20 20 19 20 20 19 19 18 18 17 17 17 17 17 17 16 16 16 16 16 16 16 16 16 16 16 16 16 16 16 16 16 16 16 16 16 16 16
10 11 11 12 13 15 17 18 18 18 18 19 19 19 19 19 19 19 18 18 17 17 16 16 16 16 16 16 16 16 16 16 16 16 16 16 16 16 16 16 16 16 16 16 16 16 16 16 16
10 11 11 12 13 15 17 18 18 17 17 18 18 18 18 18 18 18 18 17 17 16 16 16 16 16 16 16 16 16 16 16 16 16 16 16 16 16 16 16 16 16 16 16 16 16 16 16 16
10 10 11 12 13 14 16 17 17 17 16 17 17 17 17 17 17 17 17 17 16 16 16 16 16 16 16 16 16 16 16 15 15 15 16 16 16 16 16 16 16 16 16 16 16 16 16 16 16
9 9 9 11 12 14 15 15 16 16 16 16 16 16 16 16 16 16 16 16 16 16 15 15 15 15 15 15 15 15 15 15 15 15 16 16 16 16 16 16 16 16 16 16 16 16 16 16 15
9 8 10 12 13 13 13 14 14 14 14 15 15 16 16 15 15 15 15 15 15 15 15 15 15 15 15 15 15 15 15 15 15 15 15 15 15 15 15 16 16 16 16 16 16 16 16 15 15
10 9 11 12 12 12 12 12 13 13 13 14 14 14 15 15 15 15 15 15 15 15 15 15 15 15 14 14 15 15 15 15 15 15 15 15 15 15 15 15 15 15 15 15 15 15 15 15 15
10 10 11 11 11 11 12 12 12 12 12 13 13 13 13 13 14 14 14 14 14 15 15 14 14 14 14 14 14 14 14 14 14 15 15 14 14 15 15 15 15 15 15 15 15 15 15 14 14
10 10 11 11 11 11 11 11 11 11 12 12 12 13 13 13 13 13 14 14 14 14 14 14 14 14 14 14 14 14 14 14 14 14 14 14 14 15 15 15 15 15 15 15 15 15 14 14 14
10 10 10 10 10 10 11 11 11 11 11 12 12 12 12 12 13 13 13 13 13 14 14 14 14 14 14 14 14 14 14 14 14 14 14 14 14 15 15 15 15 15 14 15 14 14 14 14 14
9 9 9 10 10 11 11 10 11 11 11 12 12 12 12 12 12 12 13 13 13 13 14 14 14 14 14 14 14 14 14 14 14 14 14 14 14 15 15 14 14 14 14 14 14 14 14 14 14
9 8 8 10 11 11 10 9 11 12 11 12 12 12 12 12 12 12 13 13 13 13 13 14 13 14 14 14 14 14 14 14 14 14 14 14 14 14 14 14 14 14 14 14 14 14 14 14 14
8 7 8 10 11 11 10 9 11 11 12 12 12 12 12 12 12 12 12 12 12 13 13 13 13 13 13 13 13 13 13 14 14 14 14 14 14 14 14 14 14 14 14 14 14 14 14 14 14
8 8 8 9 10 10 10 10 11 11 12 12 12 12 12 12 12 12 12 12 12 12 13 13 13 13 13 13 13 13 13 13 13 13 14 14 14 14 14 14 14 14 14 14 14 14 14 13 14
8 8 8 9 10 10 9 10 11 11 12 11 12 11 11 12 12 12 12 12 12 12 12 12 12 13 12 13 13 13 13 13 13 13 14 14 14 14 14 14 14 14 14 14 14 14 14 13 13
8 8 8 9 10 10 9 10 11 11 11 12 12 11 11 11 12 12 12 12 12 12 12 12 12 13 13 13 13 13 13 13 13 13 13 13 13 14 14 14 14 14 14 14 14 14 13 13 13
8 8 8 8 9 10 9 9 10 11 11 12 12 12 11 11 11 12 11 11 12 12 12 12 12 12 12 12 12 13 12 13 13 13 13 13 13 13 13 14 14 14 14 14 14 14 14 14 13
8 9 9 9 8 8 9 8 9 10 11 11 11 11 11 12 12 11 11 11 12 12 12 12 12 12 12 12 12 13 12 13 13 13 13 13 13 13 13 14 14 14 14 14 14 14 13 13 13
9 9 9 9 9 8 9 8 9 10 10 11 11 11 11 11 11 11 11 11 11 11 11 12 12 12 12 12 12 12 12 13 13 13 13 13 13 13 13 13 13 13 13 13 13 13 13 13 13
9 9 9 9 9 8 10 9 9 9 10 10 11 11 11 11 11 11 11 11 11 11 11 11 12 12 12 12 12 12 12 12 12 12 12 12 12 12 12 12 13 13 13 13 13 13 13 13 12
9 8 8 9 9 9 10 10 9 9 10 10 10 10 10 10 10 10 10 10 10 10 11 11 11 11 11 11 12 12 12 12 12 12 12 12 12 12 12 12 12 12 12 12 12 12 12 12 12
9 9 8 9 9 9 10 9 8 9 10 10 10 10 9 9 9 9 9 10 10 10 10 11 11 11 11 11 11 11 11 12 12 12 12 12 12 12 12 12 12 12 12 12 12 12 12 12 12
9 9 10 9 10 9 9 9 9 9 9 9 9 9 9 9 9 9 9 9 9 10 10 10 10 10 10 10 11 11 11 11 11 11 11 11 11 12 12 12 12 11 11 11 11 11 11 11 11
10 10 9 9 9 10 10 9 8 8 9 9 9 9 9 8 8 8 9 9 9 9 9 9 10 10 10 10 10 10 10 11 11 11 11 11 11 11 11 11 11 11 11 11 11 11 10 10 10
10 10 10 9 9 10 9 8 9 8 9 9 8 8 8 8 8 8 8 8 9 9 9 9 9 9 10 10 10 10 10 10 10 10 10 10 10 10 10 10 10 10 10 10 10 10 10 10 10
9 10 10 9 9 10 8 8 9 9 9 9 9 8 8 8 8 8 8 8 8 8 8 9 9 9 9 9 9 9 9 10 10 10 10 10 10 10 10 10 10 10 10 9 9 9 9 9 9
Wind_Speed
12 11 6 3 5 8 20 16 13 14 13 9 7 6 6 5 2 3 4 8 14 18 20 22 21 19 18 16 15 14 14 15 16 16 17 17 17 18 18 17 18 17 17 16 16 16 16 15 14
11 8 4 4 8 15 16 16 18 16 12 9 7 7 6 2 4 7 5 9 14 17 19 19 21 20 18 17 15 15 15 16 16 16 17 18 18 18 18 18 18 17 17 16 16 15 15 14 13
10 8 4 5 12 19 14 9 11 12 11 9 8 6 4 1 2 5 7 10 13 15 18 20 21 20 18 17 16 16 15 16 16 16 17 18 18 18 18 18 18 17 17 16 15 15 14 13 12
4 3 4 10 20 19 17 14 10 9 9 8 6 5 1 1 2 5 10 10 12 13 16 20 21 20 18 17 17 16 16 16 16 16 17 18 18 18 19 18 18 17 17 16 15 14 13 12 11
3 3 9 15 22 19 15 13 13 11 10 9 6 6 4 1 6 8 9 10 11 12 14 20 21 20 19 17 17 16 16 16 16 17 17 18 19 19 19 18 18 17 16 15 14 13 12 11 9
3 4 10 17 20 19 16 14 13 11 12 10 8 8 7 1 5 6 8 9 10 12 13 18 20 20 19 18 17 16 16 16 17 17 18 18 19 19 19 18 17 16 15 14 13 12 11 10 8
5 6 13 17 17 16 14 12 13 10 12 10 8 8 7 1 3 5 6 7 8 11 12 13 15 17 18 18 17 16 16 16 17 17 18 18 19 19 19 18 17 15 14 13 12 11 10 8 7
4 4 11 14 17 16 13 12 9 10 11 9 8 7 6 2 1 3 4 4 6 9 11 12 13 14 13 14 16 17 17 17 17 17 18 19 19 19 18 17 16 15 14 12 11 10 9 7 5
4 6 11 13 14 12 11 11 10 9 10 9 8 8 4 3 1 2 3 4 6 8 8 10 12 12 13 13 15 16 17 17 17 17 19 18 16 16 16 16 16 14 13 12 11 9 8 7 6
6 8 14 12 12 12 11 10 10 8 11 10 9 7 4 2 3 4 6 6 8 9 9 9 10 11 11 12 13 13 14 15 15 15 16 15 15 15 15 17 16 14 13 12 10 9 9 8 8
7 9 13 14 14 12 11 10 10 11 13 10 9 7 5 4 5 6 8 7 8 9 8 8 9 8 9 7 10 8 10 12 13 16 16 14 13 13 14 12 12 12 12 10 9 9 9 10 9
11 13 15 14 12 11 11 10 11 13 13 11 10 7 6 5 5 6 5 7 7 7 7 8 9 8 8 7 7 7 7 7 8 14 15 11 7 7 9 8 10 11 10 9 9 8 10 9 8
12 13 15 12 11 11 12 12 12 14 13 11 11 10 8 7 6 5 3 5 7 8 8 8 9 8 8 7 6 7 6 7 9 11 12 11 7 7 7 7 9 9 10 9 7 6 6 5 5
8 11 12 11 12 12 14 13 13 15 13 12 12 11 10 9 7 5 5 5 7 8 7 7 8 8 7 7 7 6 6 6 8 9 11 13 9 6 6 5 5 6 8 8 7 5 3 2 2
9 11 12 12 13 11 11 13 15 13 12 13 13 12 11 9 8 7 5 5 6 8 7 6 6 8 8 8 8 6 5 6 6 7 11 12 11 9 6 5 5 5 8 7 5 3 2 2 2
8 7 7 8 9 9 7 12 10 9 12 13 12 11 9 8 8 6 5 4 5 6 7 6 6 6 8 7 6 5 5 6 6 7 9 11 12 11 6 5 5 6 6 4 3 2 2 2 2
5 5 8 8 6 5 6 10 8 8 10 11 11 10 9 8 8 6 5 6 6 6 7 7 5 6 7 7 6 6 5 5 5 7 7 9 11 12 7 5 5 7 4 3 3 2 2 2 2
4 5 8 8 5 6 8 11 9 10 10 10 9 9 8 9 8 7 6 6 6 7 7 7 6 7 7 6 5 5 5 5 4 5 5 8 9 10 8 5 6 6 4 4 3 3 2 2 2
9 9 10 10 8 7 9 11 10 9 8 8 7 6 7 7 6 6 6 6 6 5 7 7 6 7 7 5 5 6 6 6 5 5 6 8 9 9 7 5 6 5 5 5 5 3 3 2 2
9 9 10 9 7 7 7 9 9 7 6 5 6 6 5 5 6 7 7 6 6 6 6 6 6 7 7 6 5 4 5 5 5 5 6 7 8 8 7 7 6 6 5 5 5 4 3 2 3
8 8 7 8 8 6 6 6 5 3 2 3 3 5 5 7 8 7 7 6 6 6 6 6 5 6 7 6 5 4 3 3 4 4 4 5 6 6 6 6 6 6 6 5 5 5 5 4 3
6 5 6 7 5 3 3 2 3 1 0 0 2 3 5 5 5 5 6 5 4 4 4 5 5 4 5 6 6 8 7 6 5 5 4 5 6 6 6 5 6 6 5 5 5 5 4 5 4
3 5 7 7 5 4 3 1 3 3 3 2 2 3 2 3 4 4 5 5 4 4 4 4 5 5 5 5 6 6 6 6 5 5 5 5 4 5 5 5 5 6 5 5 5 5 5 4 4
5 6 7 6 2 1 1 2 3 4 5 3 3 4 4 4 5 5 5 5 4 4 3 4 4 3 4 5 4 5 7 7 7 7 6 5 4 4 5 5 5 5 5 6 5 5 5 4 4
3 3 2 1 1 0 3 3 3 6 8 7 6 6 6 6 7 7 6 6 5 4 3 4 4 4 3 3 3 4 6 6 7 6 6 6 4 4 5 5 5 5 5 5 5 5 5 5 5
3 2 2 2 1 1 3 4 3 5 7 8 8 8 8 8 8 8 7 6 5 5 5 5 4 4 4 2 2 3 3 3 3 4 5 5 5 5 6 6 5 5 5 5 5 4 4 4 5
3 2 3 2 1 1 3 3 3 6 7 8 9 10 9 9 9 8 7 7 6 6 6 5 4 4 4 3 3 2 2 2 2 3 4 4 5 4 6 6 6 5 5 6 6 4 4 4 4
3 4 3 2 2 2 4 4 3 5 6 8 9 9 9 9 9 8 7 7 7 7 6 6 7 5 4 3 3 2 2 1 1 2 3 4 4 5 6 6 6 6 6 6 5 5 5 5 4
3 3 3 2 2 2 3 4 4 4 6 8 9 9 10 10 9 8 8 7 7 7 7 7 6 6 5 4 3 3 2 2 1 1 2 3 3 5 6 6 6 7 7 7 6 6 7 7 6
3 4 4 3 4 4 3 4 5 6 7 8 9 9 9 9 8 8 8 8 8 8 8 7 7 7 5 4 4 3 2 2 2 1 0 2 3 4 5 6 6 6 7 7 7 7 7 7 8
Wind_Direction
303 276 262 245 233 230 238 237 248 255 258 266 281 281 279 279 338 116 151 134 127 138 145 154 155 155 154 152 152 152 153 153 153 154 152 149 145 140 137 135 131 125 121 115 110 106 102 99 97
299 283 256 230 226 231 237 233 240 251 265 284 289 288 284 300 83 113 133 123 133 138 145 155 155 155 154 153 153 153 153 153 153 154 152 149 145 142 139 135 130 126 121 116 111 107 105 103 101
280 268 238 229 229 231 236 230 234 243 253 265 274 282 277 318 85 116 124 129 134 139 147 152 155 156 154 153 154 154 153 152 151 153 151 148 145 143 139 133 129 126 121 118 115 111 108 106 104
275 238 237 238 238 237 246 262 278 281 267 257 261 271 303 24 56 110 124 131 135 140 142 150 156 156 154 153 154 153 154 152 151 151 149 148 146 142 137 132 128 125 123 121 119 116 112 109 107
249 242 232 239 245 251 255 259 271 274 276 272 255 256 260 128 108 122 130 140 142 141 140 153 156 156 154 154 154 153 153 152 151 152 150 148 144 141 136 132 130 128 126 125 123 121 117 114 112
229 227 233 240 247 249 251 255 264 263 265 273 271 256 249 125 119 131 142 148 147 140 141 153 157 156 155 154 154 154 154 153 151 150 149 146 144 140 138 136 134 133 132 131 129 126 123 119 117
237 243 245 253 258 257 257 255 253 259 266 266 272 268 258 214 116 137 143 143 143 139 143 149 154 156 156 155 155 154 154 152 149 148 146 144 142 141 141 140 139 138 137 136 135 133 129 126 126
251 263 254 253 259 262 271 274 272 264 264 269 270 254 254 249 120 138 136 140 134 142 147 155 155 155 155 154 155 153 152 150 146 143 141 139 139 141 142 142 142 141 140 140 141 140 138 138 144
244 240 246 249 259 270 285 284 281 289 280 269 262 260 265 310 356 148 160 156 155 153 151 160 160 159 158 157 157 151 149 146 141 139 141 141 145 146 147 146 144 144 144 146 148 150 151 157 175
208 237 246 259 272 284 289 290 291 286 279 273 272 263 244 243 210 198 198 190 175 170 170 163 163 163 162 161 153 155 154 150 151 150 152 159 159 156 149 147 148 148 150 153 159 165 173 183 195
213 240 258 267 278 286 284 284 289 280 270 268 264 258 248 215 210 212 206 200 192 177 175 167 162 164 161 155 157 160 159 163 165 161 170 170 151 142 140 148 151 155 160 165 173 183 201 209 198
241 253 259 265 274 278 278 278 274 266 269 279 277 270 268 243 220 221 213 206 193 178 175 171 164 164 157 160 164 159 160 169 165 166 175 162 146 147 152 157 166 171 179 178 180 200 213 215 196
253 262 267 266 265 267 269 260 263 263 269 272 271 269 257 254 243 224 217 229 197 184 183 179 170 169 164 165 169 167 164 165 164 166 172 157 148 154 158 165 170 179 181 174 187 212 203 203 195
264 277 277 276 270 265 261 258 254 257 258 256 252 253 248 246 236 229 214 225 205 190 184 179 176 172 169 170 168 172 166 164 165 165 171 159 158 159 159 160 169 177 172 174 195 208 184 180 170
279 279 276 264 254 251 255 255 247 254 255 247 242 241 241 238 226 213 202 212 205 186 175 172 182 177 175 178 172 170 166 167 163 166 171 164 163 161 160 157 166 169 168 175 193 201 171 163 160
269 263 260 257 247 243 231 257 257 253 246 240 235 235 235 227 220 213 188 198 207 192 177 173 184 175 179 180 174 165 174 168 165 167 170 169 165 166 164 157 169 165 165 172 176 170 156 157 160
241 241 258 275 257 257 244 262 267 262 248 239 231 226 220 219 215 208 188 198 198 190 179 176 182 171 181 180 176 172 176 171 167 169 170 171 169 170 166 161 167 164 161 165 172 162 154 169 182
269 283 288 287 287 288 273 271 276 268 249 238 232 224 214 209 211 198 189 190 196 190 182 173 184 177 175 174 170 175 176 175 169 169 168 170 171 170 166 163 166 161 158 163 168 170 168 166 170
271 280 282 289 287 281 274 275 277 267 240 230 221 212 211 205 210 189 184 190 188 184 181 172 182 180 172 175 176 177 180 178 175 177 176 177 177 176 168 166 165 160 164 168 169 167 169 175 137
264 271 277 286 290 289 281 280 279 273 255 232 209 200 194 195 199 182 181 195 182 185 182 169 179 173 165 175 177 175 169 175 174 176 178 180 179 177 172 166 164 161 162 168 172 165 159 167 153
263 256 264 277 299 277 269 286 279 276 269 242 194 172 184 194 190 172 173 190 186 185 181 179 174 176 173 176 167 159 157 157 170 178 176 172 169 171 172 169 162 165 170 174 175 168 165 177 182
275 270 277 284 298 281 262 310 316 288 95 220 163 164 187 185 169 156 160 170 178 179 182 179 164 169 172 172 179 175 179 180 180 179 176 171 167 166 168 169 166 169 173 175 177 168 167 168 178
270 293 282 275 274 283 248 223 327 26 53 16 104 121 132 123 132 136 143 152 154 157 171 170 159 159 162 168 182 179 181 181 168 160 165 172 167 163 164 170 171 169 172 181 179 172 175 175 177
273 286 277 255 238 273 263 145 21 12 8 17 68 83 85 100 104 105 104 112 113 118 125 135 138 146 157 164 171 174 175 173 164 165 173 173 167 166 175 181 181 175 176 180 185 177 178 185 179
270 303 316 267 181 34 35 78 44 8 11 26 50 61 62 81 87 84 87 85 87 90 100 109 122 132 142 150 155 171 175 169 171 174 178 175 173 179 184 182 182 182 180 176 173 173 179 182 179
290 300 323 328 12 65 41 56 32 9 22 42 52 62 65 71 77 73 72 73 70 65 82 88 97 105 101 108 119 151 152 162 174 179 182 186 189 189 180 179 179 180 178 175 172 171 178 179 181
317 314 277 294 300 99 78 82 49 26 43 52 57 61 61 67 72 69 65 62 58 55 61 73 77 74 73 65 67 97 103 140 170 181 191 193 189 179 176 181 182 183 180 177 173 176 178 174 178
283 303 314 327 348 76 100 83 18 13 43 56 56 58 61 64 64 60 61 60 56 53 52 59 67 65 62 50 46 67 88 122 145 168 184 189 182 177 179 183 181 182 182 176 175 174 175 176 173
330 327 321 315 333 27 82 52 21 48 52 65 63 62 62 62 63 58 55 55 56 54 53 53 53 52 49 45 42 38 49 57 76 145 186 184 179 179 185 184 184 184 182 181 181 182 179 181 176
321 339 345 0 354 10 79 56 31 65 67 73 72 67 65 63 62 62 60 55 50 49 48 45 43 41 36 37 44 34 24 29 29 23 207 178 179 182 182 180 185 188 186 185 186 184 182 185 186
Height
1493 1496 1499 1502 1502 1497 1485 1475 1471 1469 1466 1464 1464 1463 1463 1467 1472 1480 1479 1478 1478 1479 1482 1487 1491 1494 1497 1499 1502 1505 1508 1511 1513 1516 1519 1522 1524 1526 1528 1530 1532 1534 1536 1537 1539 1540 1541 1542 1543
1492 1496 1499 1499 1496 1491 1477 1471 1471 1468 1466 1465 1464 1464 1464 1468 1471 1474 1476 1478 1478 1480 1482 1486 1490 1493 1496 1499 1502 1505 1508 1510 1513 1516 1519 1522 1524 1527 1529 1531 1533 1535 1537 1538 1540 1541 1543 1544 1545
1492 1495 1497 1493 1487 1479 1470 1465 1465 1464 1465 1465 1465 1465 1466 1469 1472 1474 1476 1477 1479 1480 1482 1486 1490 1493 1496 1499 1502 1505 1508 1510 1513 1516 1519 1522 1525 1527 1530 1532 1534 1536 1538 1540 1541 1543 1544 1545 1546
1493 1494 1494 1489 1478 1469 1468 1466 1464 1464 1464 1465 1466 1466 1467 1471 1472 1473 1476 1478 1479 1481 1483 1486 1490 1493 1496 1499 1502 1505 1508 1510 1513 1516 1519 1522 1525 1528 1530 1532 1535 1537 1539 1541 1542 1544 1545 1547 1548
1492 1492 1490 1483 1474 1469 1466 1465 1465 1465 1465 1464 1465 1467 1468 1470 1471 1472 1475 1478 1479 1481 1483 1485 1489 1492 1496 1498 1501 1504 1507 1510 1513 1516 1519 1522 1525 1528 1530 1533 1535 1538 1540 1542 1543 1545 1546 1548 1549
1491 1488 1486 1478 1471 1467 1465 1465 1465 1464 1465 1465 1466 1466 1468 1470 1470 1472 1475 1477 1479 1480 1482 1485 1488 1492 1495 1498 1501 1504 1507 1510 1513 1516 1519 1522 1525 1528 1530 1533 1536 1538 1540 1542 1544 1546 1547 1549 1550
1488 1485 1480 1475 1470 1466 1463 1463 1463 1463 1464 1465 1466 1466 1467 1469 1469 1471 1474 1475 1478 1479 1481 1484 1487 1491 1494 1497 1501 1504 1507 1510 1513 1516 1519 1522 1525 1528 1531 1533 1536 1538 1541 1543 1545 1546 1548 1549 1550
1485 1485 1477 1474 1470 1466 1463 1462 1461 1462 1462 1464 1466 1465 1466 1467 1468 1469 1471 1474 1476 1478 1480 1482 1486 1489 1493 1496 1500 1503 1507 1510 1513 1516 1519 1522 1525 1528 1531 1533 1536 1539 1541 1543 1545 1547 1548 1550 1551
1484 1485 1477 1473 1470 1465 1463 1462 1462 1462 1461 1462 1462 1463 1464 1465 1466 1468 1470 1472 1474 1476 1479 1481 1484 1488 1492 1495 1499 1502 1506 1509 1512 1515 1519 1522 1525 1528 1530 1533 1536 1539 1541 1543 1545 1547 1548 1550 1551
1481 1479 1472 1469 1467 1465 1464 1463 1462 1461 1460 1460 1460 1461 1462 1463 1465 1466 1467 1469 1471 1474 1476 1479 1482 1486 1490 1493 1497 1501 1504 1508 1511 1514 1518 1521 1524 1527 1530 1533 1536 1538 1541 1543 1545 1547 1548 1549 1551
1475 1472 1469 1467 1466 1465 1464 1463 1462 1460 1459 1459 1460 1460 1461 1461 1461 1463 1464 1466 1469 1471 1474 1476 1480 1484 1488 1491 1494 1498 1502 1506 1510 1513 1517 1520 1523 1526 1529 1532 1535 1537 1540 1542 1544 1546 1548 1549 1550
1470 1468 1467 1465 1465 1463 1462 1461 1461 1460 1459 1458 1458 1457 1457 1458 1458 1459 1460 1463 1466 1468 1471 1475 1478 1482 1486 1490 1493 1496 1500 1505 1508 1512 1515 1519 1521 1524 1527 1530 1533 1536 1539 1541 1543 1545 1547 1549 1550
1467 1465 1463 1462 1462 1461 1460 1458 1458 1455 1455 1455 1454 1453 1454 1455 1455 1456 1458 1461 1463 1465 1468 1473 1476 1479 1483 1487 1491 1495 1499 1503 1507 1510 1514 1517 1519 1522 1526 1529 1532 1535 1538 1540 1542 1544 1546 1548 1549
1464 1463 1460 1459 1458 1458 1457 1454 1454 1450 1452 1451 1451 1450 1450 1451 1452 1453 1455 1457 1460 1463 1466 1470 1473 1476 1480 1484 1488 1493 1497 1501 1505 1508 1512 1515 1518 1521 1524 1528 1531 1534 1537 1539 1541 1543 1545 1547 1548
1463 1462 1459 1455 1454 1453 1453 1449 1447 1446 1447 1446 1446 1446 1446 1446 1448 1450 1452 1454 1457 1460 1464 1467 1470 1474 1477 1481 1486 1490 1494 1498 1502 1506 1510 1513 1516 1519 1522 1526 1529 1532 1535 1537 1540 1542 1544 1545 1546
1462 1461 1458 1451 1448 1448 1452 1446 1441 1441 1442 1440 1441 1442 1442 1443 1444 1446 1449 1452 1454 1458 1461 1464 1468 1470 1475 1478 1483 1487 1492 1496 1499 1503 1507 1511 1514 1517 1520 1523 1527 1530 1533 1535 1537 1539 1541 1542 1544
1460 1458 1454 1449 1444 1444 1445 1441 1437 1438 1437 1436 1436 1438 1439 1440 1441 1443 1446 1450 1452 1455 1458 1461 1464 1467 1472 1476 1480 1484 1489 1493 1497 1501 1505 1508 1511 1515 1518 1521 1524 1527 1530 1533 1535 1537 1538 1540 1541
1457 1454 1451 1448 1444 1443 1442 1438 1435 1435 1433 1432 1433 1434 1435 1436 1438 1440 1443 1447 1449 1451 1455 1458 1462 1465 1469 1473 1477 1482 1486 1490 1494 1498 1502 1505 1509 1512 1515 1518 1521 1524 1527 1529 1531 1533 1535 1537 1538
1454 1453 1451 1446 1443 1442 1440 1435 1432 1430 1429 1428 1428 1429 1431 1433 1436 1438 1441 1443 1446 1448 1451 1455 1459 1462 1466 1470 1474 1478 1482 1487 1491 1495 1499 1503 1506 1509 1512 1515 1518 1521 1523 1525 1528 1530 1532 1534 1535
1452 1452 1449 1445 1440 1439 1437 1433 1428 1425 1424 1424 1425 1426 1428 1431 1433 1435 1438 1441 1442 1445 1448 1452 1457 1459 1463 1467 1471 1475 1479 1484 1488 1492 1496 1499 1503 1506 1509 1512 1514 1517 1520 1522 1525 1527 1528 1530 1532
1449 1449 1447 1444 1440 1437 1437 1433 1426 1423 1422 1422 1422 1424 1426 1429 1431 1433 1437 1439 1441 1444 1447 1450 1453 1458 1461 1465 1469 1472 1477 1481 1485 1488 1492 1497 1500 1503 1505 1508 1511 1513 1516 1518 1521 1523 1524 1526 1528
1448 1443 1442 1441 1443 1441 1438 1439 1429 1423 1423 1422 1423 1425 1427 1428 1430 1432 1435 1437 1440 1443 1445 1448 1452 1456 1459 1463 1466 1469 1473 1476 1480 1484 1489 1493 1496 1499 1501 1504 1507 1509 1512 1514 1516 1518 1520 1522 1523
1444 1441 1440 1440 1440 1441 1435 1439 1435 1425 1426 1424 1423 1424 1425 1427 1429 1431 1434 1436 1439 1442 1444 1446 1450 1454 1457 1461 1464 1466 1469 1473 1477 1482 1486 1489 1492 1495 1498 1500 1503 1505 1507 1510 1512 1514 1516 1517 1519
1443 1441 1438 1436 1439 1441 1432 1435 1438 1433 1430 1427 1425 1425 1426 1428 1430 1432 1434 1437 1439 1440 1442 1445 1448 1452 1456 1459 1461 1463 1466 1470 1474 1478 1482 1485 1488 1491 1494 1497 1499 1500 1503 1506 1508 1509 1511 1512 1514
1443 1445 1444 1440 1439 1438 1429 1433 1442 1436 1432 1429 1428 1428 1429 1430 1432 1433 1435 1437 1438 1439 1441 1444 1447 1450 1453 1456 1458 1461 1465 1468 1471 1475 1478 1482 1484 1487 1490 1492 1494 1496 1499 1501 1503 1504 1506 1508 1509
1442 1444 1448 1444 1439 1436 1433 1440 1445 1438 1435 1433 1432 1432 1432 1433 1434 1435 1436 1437 1438 1439 1441 1443 1447 1449 1451 1453 1456 1459 1462 1465 1468 1471 1475 1478 1480 1483 1485 1487 1489 1492 1493 1495 1497 1499 1501 1502 1504
1442 1442 1440 1443 1436 1438 1439 1444 1443 1440 1438 1436 1436 1436 1436 1436 1437 1438 1438 1439 1440 1441 1442 1444 1446 1448 1450 1452 1454 1456 1459 1463 1465 1468 1471 1474 1476 1478 1480 1483 1484 1486 1488 1490 1492 1493 1495 1497 1498
1442 1441 1440 1442 1437 1438 1440 1446 1450 1445 1442 1440 1440 1440 1440 1440 1441 1441 1441 1442 1442 1443 1444 1445 1446 1448 1450 1452 1454 1455 1458 1460 1462 1464 1467 1469 1471 1473 1475 1477 1478 1481 1483 1484 1486 1487 1488 1490 1491
1443 1441 1440 1439 1438 1439 1444 1455 1449 1447 1445 1445 1445 1445 1445 1445 1445 1445 1444 1444 1445 1446 1446 1447 1448 1449 1450 1452 1454 1455 1456 1457 1459 1461 1463 1465 1467 1469 1471 1472 1473 1475 1477 1478 1480 1481 1482 1484 1486
1445 1443 1441 1445 1443 1439 1448 1462 1450 1449 1448 1448 1449 1449 1449 1449 1449 1448 1448 1448 1448 1448 1448 1449 1450 1450 1452 1452 1453 1454 1455 1456 1457 1458 1459 1461 1462 1464 1465 1467 1468 1470 1471 1473 1474 1475 1476 1478 1480